Regional Weather Roundup
Issued by NWS

Home | Current Version | Previous Version | Text Only | Print | Product List | Glossary On
Versions: 1 2 3 4 5 6 7 8 9 10 11 12 13 14 15 16 17 18 19 20 21 22 23 24 25 26 27 28 29 30 31 32 33 34 35 36 37 38 39 40 41 42 43 44 45 46 47 48 49 50
000
ASUS43 KTOP 202108
RWRKS

WEATHER ROUNDUP FOR KANSAS
NATIONAL WEATHER SERVICE GOODLAND KS
300 PM CST THU NOV 20 2014

NOTE:  "FAIR" INDICATES FEW OR NO CLOUDS BELOW 12,000 FEET WITH NO
SIGNIFICANT WEATHER AND/OR OBSTRUCTIONS TO VISIBILITY.

KSZ001>006-013>018-027>032-041>047-202200-
NORTHWEST KANSAS

CITY           SKY/WX    TMP DP  RH WIND       PRES   REMARKS
GOODLAND       SUNNY     54  17  23 E6        29.99F
HAYS           SUNNY     48  25  40 SE7       30.04F
HILL CITY      SUNNY     51  26  37 NE9       30.03F
RUSSELL        SUNNY     48  24  39 SE7       30.04F
$$

KSZ061>065-074>080-084>089-202200-
SOUTHWEST KANSAS

CITY           SKY/WX    TMP DP  RH WIND       PRES   REMARKS
DODGE CITY     MOSUNNY   54  25  32 S9        30.01S
ELKHART          N/A     50  29  44 NE7         N/A
GARDEN CITY    MOSUNNY   54  27  35 S6        29.99S
GREAT BEND     SUNNY     46  25  42 SE9       30.05F
LIBERAL        MOSUNNY   54  28  37 SE6       30.01S
PRATT          MOSUNNY   50  25  37 SE8       30.04F
$$

KSZ066>073-081>083-090>101-202200-
SOUTHEAST KANSAS

CITY           SKY/WX    TMP DP  RH WIND       PRES   REMARKS
CHANUTE        SUNNY     47  24  40 E9        30.12F
COFFEYVILLE    SUNNY     50  27  40 NE13      30.11S
HUTCHINSON     SUNNY     50  25  37 SE9       30.07F
MEDICINE LODGE   N/A     50  28  42 E6        30.05S
NEWTON         SUNNY     46  21  36 E7        30.11S
PARSONS        SUNNY     50  25  37 NE8       30.12F
WICHITA INTL   PTSUNNY   50  24  36 E8        30.07F
WICHITA JABRA  MOSUNNY   50  24  36 E6        30.08S
WICHITA MCCONL MOSUNNY   50  23  34 E8        30.08S
WINFIELD       MOSUNNY   53  26  35 E10       30.07F
$$

KSZ007>012-019>026-033>040-048>060-102>105-202200-
NORTHEAST KANSAS

CITY           SKY/WX    TMP DP  RH WIND       PRES   REMARKS
CONCORDIA      SUNNY     41  20  43 E9        30.11F
EMPORIA        SUNNY     44  20  38 E10       30.13F
LAWRENCE       SUNNY     41  19  41 N6        30.19F
MANHATTAN      SUNNY     42  19  39 E10       30.14F
MARYSVILLE     SUNNY     37  21  52 E7        30.14F
OLATHE IND     SUNNY     41  19  41 NE6       30.18F
OLATHE EXE     SUNNY     40  19  43 E6        30.17F
SALINA         SUNNY     47  20  34 SE8       30.11S
TOPEKA BILLARD SUNNY     42  19  39 E6        30.18F
TOPEKA FORBES  SUNNY     42  19  39 E8        30.16F
$$


USA.gov is the U.S. government's official web portal to all federal, state and local government web resources and services.